This demonstration page uses our WeatherBlox Daily Observations layout. Learn more.

40.92945, -100.16068

Hourly Observations for November 16, 2019

Temp ( °F °C ) Dew Point ( °F °C ) Humidity (%) Winds ( mph kmh ) Pressure ( in mb ) Visibility ( mi km ) Precip ( " mm )
12:15 am 00:15 Clear 44 6.5 31 -0.5 61 61 S 12 19 30.09 1019 10 16.09344 0 0
12:35 am 00:35 Clear 43 6.2 31 -0.5 63 63 SSE 6 9 30.09 1019 10 16.09344 0 0
12:55 am 00:55 Clear 42 5.6 31 -0.6 65 65 SE 6 9 30.09 1019 10 16.09344 0 0
1:15 am 01:15 Clear 42 5.7 31 -0.6 64 64 SSE 7 11 30.06 1018 10 16.09344 0 0
1:35 am 01:35 Clear 42 5.6 31 -0.6 65 65 SSE 7 11 30.06 1018 10 16.09344 0 0
1:55 am 01:55 Clear 40 4.7 31 -0.8 68 68 S 7 11 30.06 1018 10 16.09344 0 0
2:15 am 02:15 Clear 40 4.2 31 -0.8 70 70 ESE 5 7 30.06 1018 10 16.09344 0 0
2:35 am 02:35 Clear 40 4.3 31 -0.7 70 70 SSE 6 9 30.06 1018 10 16.09344 0 0
2:55 am 02:55 Clear 39 3.8 31 -0.7 73 73 SSE 7 11 30.06 1018 10 16.09344 0 0
3:15 am 03:15 Clear 39 3.7 31 -0.7 73 73 SSE 5 7 30.06 1018 10 16.09344 0 0
3:35 am 03:35 Clear 38 3.4 31 -0.7 75 75 SSE 6 9 30.06 1018 10 16.09344 0 0
3:55 am 03:55 Clear 38 3.3 31 -0.7 75 75 SSE 5 7 30.06 1018 10 16.09344 0 0
4:15 am 04:15 Clear 38 3.6 31 -0.6 74 74 SSE 5 7 30.03 1017 10 16.09344 0 0
4:35 am 04:35 Clear 38 3.4 31 -0.7 75 75 SSE 6 9 30.06 1018 10 16.09344 0 0
4:55 am 04:55 Clear 37 2.9 30 -1 76 76 SSE 10 17 30.06 1018 10 16.09344 0 0
5:15 am 05:15 Clear 37 3 30 -1 75 75 S 7 11 30.06 1018 10 16.09344 0 0
5:35 am 05:35 Clear 38 3.3 30 -1 74 74 SSE 5 7 30.06 1018 10 16.09344 0 0
5:55 am 05:55 Clear 37 2.9 30 -1.1 75 75 S 7 11 30.06 1018 10 16.09344 0 0
6:15 am 06:15 Clear 36 2.1 29 -1.4 78 78 SSE 7 11 30.06 1018 10 16.09344 0 0
6:35 am 06:35 Clear 35 1.4 29 -1.5 81 81 S 8 13 30.06 1018 10 16.09344 0 0
6:55 am 06:55 Clear 35 1.5 29 -1.5 81 81 S 7 11 30.06 1018 10 16.09344 0 0
7:15 am 07:15 Clear 35 1.5 30 -1.3 82 82 SSE 6 9 30.06 1018 10 16.09344 0 0
7:35 am 07:35 Sunny 35 1.7 30 -1.2 81 81 S 7 11 30.06 1018 10 16.09344 0 0
7:55 am 07:55 Sunny 36 2.1 30 -1.2 79 79 SSW 5 7 30.06 1018 10 16.09344 0 0
8:15 am 08:15 Sunny 36 2.3 30 -1.1 78 78 SW 7 11 30.06 1018 10 16.09344 0 0
8:35 am 08:35 Sunny 37 3 30 -1 75 75 S 7 11 30.06 1018 10 16.09344 0 0
8:55 am 08:55 Sunny 37 3 30 -1.1 75 75 S 7 11 30.06 1018 10 16.09344 0 0
9:15 am 09:15 Sunny 40 4.5 31 -0.7 69 69 SSW 7 11 30.03 1017 10 16.09344 0 0
9:35 am 09:35 Sunny 42 5.5 31 -0.5 66 66 SSW 7 11 30.03 1017 10 16.09344 0 0
9:55 am 09:55 Sunny 44 6.4 31 -0.7 61 61 SSW 10 17 30.03 1017 10 16.09344 0 0
10:15 am 10:15 Sunny 46 7.8 31 -0.3 57 57 SSW 10 17 30 1016 10 16.09344 0 0
10:35 am 10:35 Sunny 48 9.1 32 -0.2 53 53 SSW 6 9 30 1016 10 16.09344 0 0
10:55 am 10:55 Sunny 50 10.1 32 0 50 50 S 6 9 29.94 1014 10 16.09344 0 0
11:15 am 11:15 Sunny 52 11.2 32 0 46 46 Calm 29.94 1014 10 16.09344 0 0
11:35 am 11:35 Sunny 54 12.4 32 0.2 43 43 SW 5 7 29.94 1014 10 16.09344 0 0
11:55 am 11:55 Sunny 54 12.3 33 0.3 44 44 SE 3 6 29.88 1012 10 16.09344 0 0
12:15 pm 12:15 Sunny 55 12.9 33 0.4 43 43 S 5 7 29.88 1012 10 16.09344 0 0
12:35 pm 12:35 Sunny 56 13.6 33 0.6 41 41 WSW 5 7 29.88 1012 10 16.09344 0 0
12:55 pm 12:55 Sunny 57 14.1 33 0.8 41 41 WSW 6 9 29.88 1012 10 16.09344 0 0
1:15 pm 13:15 Sunny 59 15 34 1.1 39 39 WSW 6 9 29.88 1012 10 16.09344 0 0
1:35 pm 13:35 Sunny 60 15.5 34 0.9 37 37 W 6 9 29.83 1010 10 16.09344 0 0
1:55 pm 13:55 Sunny 61 16.2 34 1.2 36 36 WNW 7 11 29.83 1010 10 16.09344 0 0
2:15 pm 14:15 Sunny 62 16.7 34 1.3 36 36 W 5 7 29.83 1010 10 16.09344 0 0
2:35 pm 14:35 Sunny 62 16.4 34 1.1 36 36 NNW 8 13 29.83 1010 10 16.09344 0 0
2:55 pm 14:55 Sunny 61 16.1 34 1.1 36 36 Calm 29.83 1010 10 16.09344 0 0
3:15 pm 15:15 Sunny 61 16 34 1.1 37 37 Calm 29.83 1010 10 16.09344 0 0
3:35 pm 15:35 Sunny 61 15.9 34 0.9 36 36 Calm 29.83 1010 10 16.09344 0 0
3:55 pm 15:55 Sunny 60 15.6 34 1 37 37 NNW 8 13 29.83 1010 10 16.09344 0 0
4:15 pm 16:15 Partly Cloudy 59 14.9 33 0.7 38 38 N 8 13 29.88 1012 10 16.09344 0 0
4:35 pm 16:35 Sunny 58 14.6 34 0.9 40 40 N 14 22 29.88 1012 10 16.09344 0 0
4:55 pm 16:55 Sunny 57 13.7 34 0.9 42 42 NNW 18 30 29.91 1013 10 16.09344 0 0
5:15 pm 17:15 Partly Cloudy 56 13.2 34 1.2 44 44 NNW 17 28 29.91 1013 10 16.09344 0 0
5:35 pm 17:35 Partly Cloudy 55 12.5 34 1 46 46 N 15 24 29.97 1015 10 16.09344 0 0
5:55 pm 17:55 Clear 53 11.9 34 1 48 48 N 16 26 29.97 1015 10 16.09344 0 0
6:15 pm 18:15 Clear 53 11.7 34 1 48 48 N 20 31 30 1016 10 16.09344 0 0
6:35 pm 18:35 Clear 53 11.4 34 1 49 49 N 17 28 30 1016 10 16.09344 0 0
6:55 pm 18:55 Clear 52 11 34 1.1 51 51 N 14 22 30.03 1017 10 16.09344 0 0
7:15 pm 19:15 Clear 51 10.5 34 1.3 53 53 N 12 19 30.03 1017 10 16.09344 0 0
7:35 pm 19:35 Clear 50 10 35 1.5 56 56 N 10 17 30.06 1018 10 16.09344 0 0
7:55 pm 19:55 Clear 49 9.7 35 1.6 57 57 N 13 20 30.06 1018 10 16.09344 0 0
8:15 pm 20:15 Clear 49 9.6 36 2 59 59 N 10 17 30.06 1018 10 16.09344 0 0
8:35 pm 20:35 Clear 48 9.1 36 2 61 61 N 13 20 30.06 1018 10 16.09344 0 0
8:55 pm 20:55 Clear 47 8.1 35 1.8 65 65 NW 9 15 30.06 1018 10 16.09344 0 0
9:15 pm 21:15 Clear 42 5.8 34 1.1 72 72 NW 9 15 30.09 1019 10 16.09344 0 0
9:35 pm 21:35 Mostly Cloudy 44 6.4 35 1.6 72 72 NW 8 13 30.12 1020 10 16.09344 0 0
9:55 pm 21:55 Cloudy 44 6.9 35 1.8 70 70 NW 7 11 30.12 1020 10 16.09344 0 0
10:15 pm 22:15 Cloudy 44 6.5 35 1.8 72 72 WNW 8 13 30.12 1020 10 16.09344 0 0
10:35 pm 22:35 Cloudy 43 6.3 36 2.1 75 75 WNW 8 13 30.12 1020 10 16.09344 0 0
10:55 pm 22:55 Cloudy 45 7.1 36 2.3 72 72 WNW 7 11 30.12 1020 10 16.09344 0 0
11:15 pm 23:15 Cloudy 45 7.2 37 2.5 72 72 NW 8 13 30.15 1021 10 16.09344 0 0
11:35 pm 23:35 Cloudy 46 8 37 2.5 69 69 NW 12 19 30.12 1020 10 16.09344 0 0
11:55 pm 23:55 Cloudy 47 8.4 36 2.3 66 66 NNW 15 24 30.12 1020 10 16.09344 0 0

Powered by AerisWeather